Weather History for Benson, MN

Change the Weather History Date:

Monday, October 8, 2012

  Actual Average Record
Temperature  
Mean Temperature 47 °F -  
Max Temperature 64 °F 60 °F 87 °F (2003)
Min Temperature 30 °F 39 °F 12 °F (2000)
Degree Days  
Heating Degree Days 18    
Moisture  
Dew Point 29 °F    
Average Humidity 53    
Maximum Humidity 81    
Minimum Humidity 36    
Precipitation  
Precipitation 0.00 in - - ()
Sea Level Pressure  
Sea Level Pressure 29.68 in    
Wind  
Wind Speed 7 mph (WSW)    
Max Wind Speed 25 mph    
Max Gust Speed 32 mph    
Visibility 10 miles    
Events Rain    
Averages and records for this station are not official NWS values.
T = Trace of Precipitation, MM = Missing Value Source: NWS Daily Summary

Daily Weather History Graph

Daily Weather History Graph

Search for Another Location

Airport:

Trip Planner

Search our weather history database for the weather conditions in past years. The results will help you decide how hot, cold, wet, or windy it might be!

Date:

Astronomy

Oct. 08, 2012 Rise Set
Actual Time 7:30 AM CDT 6:48 PM CDT
Civil Twilight 7:00 AM CDT 7:18 PM CDT
Nautical Twilight 6:26 AM CDT 7:52 PM CDT
Astronomical Twilight 5:52 AM CDT 8:26 PM CDT
Moon No Moon Rise 2:56 PM CDT (10/8)
Length of Visible Light 12h 17m
Length of Day
11h 18m
Last Quarter, 46% of the Moon is Illuminated
Oct 8
Last Quarter
Oct 15
New
Oct 21
First Quarter
Oct 29
Full
Nov 6
Last Quarter

Hourly Weather History & Observations

Time (CDT) Temp. Windchill Dew Point Humidity Pressure Visibility Wind Dir Wind Speed Gust Speed Precip Events Conditions
12:12 AM 33.8 °F 28.6 °F 17.6 °F 52% 29.81 in 10.0 mi SSW 5.8 mph - N/A   Clear
12:33 AM 33.8 °F 29.6 °F 17.6 °F 52% 29.80 in 10.0 mi SW 4.6 mph - N/A   Clear
12:52 AM 33.8 °F 30.8 °F 17.6 °F 52% 29.80 in 10.0 mi SSW 3.5 mph - N/A   Clear
1:13 AM 30.2 °F 26.7 °F 17.6 °F 60% 29.79 in 10.0 mi SSW 3.5 mph - N/A   Clear
1:33 AM 32.0 °F - 17.6 °F 55% 29.79 in 10.0 mi Calm Calm - N/A   Clear
1:52 AM 32.0 °F - 17.6 °F 55% 29.79 in 10.0 mi Calm Calm - N/A   Clear
2:13 AM 30.2 °F - 17.6 °F 60% 29.79 in 10.0 mi Calm Calm - N/A   Clear
2:33 AM 30.2 °F 26.7 °F 17.6 °F 60% 29.78 in 10.0 mi South 3.5 mph - N/A   Clear
2:52 AM 30.2 °F 26.7 °F 17.6 °F 60% 29.78 in 10.0 mi South 3.5 mph - N/A   Clear
3:13 AM 33.8 °F 30.8 °F 19.4 °F 56% 29.77 in 10.0 mi South 3.5 mph - N/A   Scattered Clouds
3:33 AM 33.8 °F 30.8 °F 19.4 °F 56% 29.76 in 10.0 mi South 3.5 mph - N/A   Scattered Clouds
3:52 AM 33.8 °F 30.8 °F 19.4 °F 56% 29.75 in 10.0 mi South 3.5 mph - N/A   Scattered Clouds
4:13 AM 35.6 °F 31.7 °F 19.4 °F 52% 29.74 in 10.0 mi South 4.6 mph - N/A   Overcast
4:33 AM 35.6 °F 32.8 °F 19.4 °F 52% 29.74 in 10.0 mi South 3.5 mph - N/A   Overcast
4:52 AM 37.4 °F - 19.4 °F 48% 29.73 in 10.0 mi Calm Calm - N/A   Overcast
5:13 AM 37.4 °F 32.8 °F 19.4 °F 48% 29.73 in 10.0 mi South 5.8 mph - N/A   Overcast
5:32 AM 37.4 °F 33.8 °F 21.2 °F 52% 29.72 in 10.0 mi South 4.6 mph - N/A   Overcast
5:53 AM 39.2 °F 37.0 °F 21.2 °F 49% 29.72 in 10.0 mi SSW 3.5 mph - N/A   Overcast
6:12 AM 37.4 °F 33.8 °F 21.2 °F 52% 29.71 in 10.0 mi South 4.6 mph - N/A   Mostly Cloudy
6:32 AM 35.6 °F 31.7 °F 21.2 °F 56% 29.70 in 10.0 mi South 4.6 mph - N/A   Scattered Clouds
6:53 AM 35.6 °F 32.8 °F 21.2 °F 56% 29.70 in 10.0 mi SSE 3.5 mph - N/A   Scattered Clouds
7:12 AM 35.6 °F 30.7 °F 21.2 °F 56% 29.70 in 10.0 mi South 5.8 mph - N/A   Clear
7:32 AM 35.6 °F 31.7 °F 21.2 °F 56% 29.69 in 10.0 mi South 4.6 mph - N/A   Clear
7:53 AM 39.2 °F 35.0 °F 23.0 °F 52% 29.69 in 10.0 mi SSE 5.8 mph - N/A   Clear
8:13 AM 39.2 °F 35.0 °F 23.0 °F 52% 29.68 in 10.0 mi South 5.8 mph - N/A   Mostly Cloudy
8:33 AM 41.0 °F 35.8 °F 24.8 °F 53% 29.68 in 10.0 mi South 8.1 mph - N/A   Overcast
8:53 AM 41.0 °F 35.8 °F 24.8 °F 53% 29.66 in 10.0 mi South 8.1 mph - N/A   Mostly Cloudy
9:12 AM 44.6 °F 39.7 °F 24.8 °F 46% 29.65 in 10.0 mi SSW 9.2 mph - N/A   Mostly Cloudy
9:33 AM 48.2 °F - 26.6 °F 43% 29.65 in 10.0 mi SSW 11.5 mph - N/A   Mostly Cloudy
9:53 AM 48.2 °F - 26.6 °F 43% 29.64 in 10.0 mi SSW 12.7 mph - N/A   Mostly Cloudy
10:12 AM 50.0 °F - 28.4 °F 43% 29.63 in 10.0 mi SW 11.5 mph - N/A   Mostly Cloudy
10:33 AM 51.8 °F - 28.4 °F 41% 29.62 in 10.0 mi SW 12.7 mph 17.3 mph N/A   Scattered Clouds
11:12 AM 51.8 °F - 32.0 °F 47% 29.60 in 10.0 mi SSW 12.7 mph - N/A   Drizzle
11:33 AM 51.8 °F - 32.0 °F 47% 29.58 in 10.0 mi SW 13.8 mph - N/A Rain Light Rain
11:53 AM 51.8 °F - 32.0 °F 47% 29.58 in 10.0 mi SW 11.5 mph - N/A Rain Light Rain
12:12 PM 53.6 °F - 32.0 °F 44% 29.58 in 10.0 mi SW 8.1 mph 16.1 mph N/A Rain Light Rain
12:33 PM 55.4 °F - 30.2 °F 38% 29.58 in 10.0 mi SW 13.8 mph - N/A   Mostly Cloudy
12:53 PM 57.2 °F - 32.0 °F 38% 29.58 in 10.0 mi WSW 13.8 mph - N/A   Mostly Cloudy
1:33 PM 60.8 °F - 33.8 °F 36% 29.57 in 10.0 mi WNW 16.1 mph - N/A   Mostly Cloudy
1:53 PM 62.6 °F - 35.6 °F 37% 29.56 in 10.0 mi NW 15.0 mph 20.7 mph N/A   Mostly Cloudy
2:12 PM 60.8 °F - 35.6 °F 39% 29.57 in 10.0 mi WNW 19.6 mph 23.0 mph N/A   Scattered Clouds
2:33 PM 62.6 °F - 37.4 °F 39% 29.57 in 10.0 mi NW 17.3 mph - N/A   Scattered Clouds
2:52 PM 64.4 °F - 39.2 °F 40% 29.58 in 10.0 mi NW 21.9 mph 26.5 mph N/A   Scattered Clouds
3:13 PM 64.4 °F - 39.2 °F 40% 29.58 in 10.0 mi NW 23.0 mph 27.6 mph N/A   Mostly Cloudy
3:33 PM 62.6 °F - 39.2 °F 42% 29.58 in 10.0 mi NNW 19.6 mph 26.5 mph N/A   Overcast
3:52 PM 62.6 °F - 39.2 °F 42% 29.59 in 10.0 mi NW 25.3 mph 32.2 mph N/A   Mostly Cloudy
4:13 PM 62.6 °F - 39.2 °F 42% 29.60 in 10.0 mi NNW 20.7 mph 27.6 mph N/A   Mostly Cloudy
4:33 PM 60.8 °F - 39.2 °F 45% 29.61 in 10.0 mi NNW 25.3 mph 32.2 mph N/A   Mostly Cloudy
4:52 PM 60.8 °F - 39.2 °F 45% 29.62 in 10.0 mi NNW 24.2 mph 29.9 mph N/A   Mostly Cloudy
5:13 PM 60.8 °F - 39.2 °F 45% 29.64 in 10.0 mi NNW 25.3 mph 32.2 mph N/A   Overcast
5:32 PM 59.0 °F - 37.4 °F 45% 29.65 in 10.0 mi NNW 21.9 mph 27.6 mph N/A   Mostly Cloudy
5:53 PM 57.2 °F - 37.4 °F 48% 29.66 in 10.0 mi NNW 20.7 mph 32.2 mph N/A   Scattered Clouds
6:13 PM 57.2 °F - 37.4 °F 48% 29.67 in 10.0 mi NNW 17.3 mph 27.6 mph N/A   Clear
7:13 PM 50.0 °F - 37.4 °F 62% 29.71 in 10.0 mi North 6.9 mph - N/A   Clear
7:32 PM 48.2 °F - 35.6 °F 62% 29.70 in 10.0 mi North 3.5 mph - N/A   Clear
7:53 PM 44.6 °F 42.2 °F 35.6 °F 71% 29.71 in 10.0 mi NNW 4.6 mph - N/A   Clear
8:13 PM 42.8 °F 41.1 °F 33.8 °F 70% 29.71 in 10.0 mi NW 3.5 mph - N/A   Clear
8:32 PM 42.8 °F 39.3 °F 33.8 °F 70% 29.71 in 10.0 mi West 5.8 mph - N/A   Clear
8:53 PM 42.8 °F 41.1 °F 33.8 °F 70% 29.72 in 10.0 mi West 3.5 mph - N/A   Clear
9:12 PM 42.8 °F 40.1 °F 33.8 °F 70% 29.72 in 10.0 mi West 4.6 mph - N/A   Scattered Clouds
9:32 PM 41.0 °F 38.0 °F 33.8 °F 76% 29.72 in 10.0 mi WSW 4.6 mph - N/A   Scattered Clouds
9:53 PM 44.6 °F 43.1 °F 33.8 °F 66% 29.72 in 10.0 mi West 3.5 mph - N/A   Overcast
10:12 PM 44.6 °F 43.1 °F 35.6 °F 71% 29.73 in 10.0 mi West 3.5 mph - N/A   Overcast
10:53 PM 42.8 °F 38.6 °F 33.8 °F 70% 29.73 in 10.0 mi West 6.9 mph - N/A   Mostly Cloudy
11:13 PM 42.8 °F 37.5 °F 33.8 °F 70% 29.73 in 10.0 mi West 9.2 mph - N/A   Scattered Clouds
11:33 PM 41.0 °F 35.2 °F 33.8 °F 76% 29.73 in 10.0 mi West 9.2 mph - N/A   Clear
11:53 PM 39.2 °F 33.6 °F 33.8 °F 81% 29.73 in 10.0 mi West 8.1 mph - N/A   Clear